Regional Weather Roundup
Issued by NWS

Home | Current Version | Previous Version | Graphics & Text | Print | Product List | Glossary Off
Versions: 1 2 3 4 5 6 7 8 9 10 11 12 13 14 15 16 17 18 19 20 21 22 23 24 25 26 27 28 29 30 31 32 33 34 35 36 37 38 39 40 41 42 43 44 45 46 47 48 49 50

066
ASUS43 KMKX 190500
RWRWI

WISCONSIN REGIONAL WEATHER ROUNDUP
NATIONAL WEATHER SERVICE MILWAUKEE/SULLIVAN WI
1100 PM CST SAT FEB 18 2017

NOTE: "FAIR" INDICATES FEW OR NO CLOUDS BELOW 12,000 FEET WITH NO
SIGNIFICANT WEATHER AND/OR OBSTRUCTIONS TO VISIBILITY.

WIZ001-002-006>008-014>016-023>028-190600-
NORTHWEST WISCONSIN

CITY           SKY/WX    TMP DP  RH WIND       PRES   REMARKS
SUPERIOR ARPT  MOCLDY    41  29  62 SW7       29.81S
ASHLAND        PTCLDY    41  29  62 W7        29.80S
HAYWARD        PTCLDY    34  28  79 CALM      29.82R
SIREN          CLOUDY    44  34  69 SW6       29.83S
CUMBERLAND     CLOUDY    36  32  87 CALM      29.83S
RICE LAKE      CLOUDY    37  32  83 CALM      29.85S
CHETEK         CLOUDY    39  33  80 SW3       29.84S
LADYSMITH      MOCLDY    41  33  72 CALM      29.84F
EAU CLAIRE     NOT AVBL
MENOMONIE      PTCLDY    35  32  88 CALM      29.85F
NEW RICHMOND   CLOUDY    37  32  82 CALM      29.85S
OSCEOLA        PTCLDY    37  32  83 CALM      29.87S
$$

WIZ003>005-009-010-017-018-190600-
NORTH CENTRAL WISCONSIN

CITY           SKY/WX    TMP DP  RH WIND       PRES   REMARKS
MANITOWISH WTR PTCLDY    40  28  63 W6        29.80R
ARBOR VITAE    CLOUDY    43  30  61 CALM      29.81R
WOODRUFF       CLOUDY    43  30  61 CALM      29.81R
RHINELANDER    CLOUDY    41  32  70 W8        29.81R
EAGLE RIVER    CLOUDY    42  27  54 W9        29.79R
LAND O LAKES   PTCLDY    44  27  51 W8        29.79R
PHILLIPS       CLOUDY    41  32  69 CALM      29.81S
TOMAHAWK       PTCLDY    44  31  60 W5        29.82S
MEDFORD        PTCLDY    39  31  72 W3        29.83S
MERRILL        NOT AVBL
$$

WIZ029-030-035-036-043>047-190600-
CENTRAL WISCONSIN

CITY           SKY/WX    TMP DP  RH WIND       PRES   REMARKS
WAUSAU         NOT AVBL
MOSINEE        PTCLDY    41  32  70 W7        29.84R
MARSHFIELD     NOT AVBL
STEVENS POINT  CLOUDY    42  31  63 W3        29.85R
WAUPACA        CLOUDY    47  30  52 CALM      29.83R
WAUTOMA        NOT AVBL
WISC RAPIDS    NOT AVBL
CAMP DOUGLAS   NOT AVBL
$$

WIZ011>013-019>022-031-037>040-048>050-190600-
NORTHEAST WISCONSIN

CITY           SKY/WX    TMP DP  RH WIND       PRES   REMARKS
ANTIGO         CLOUDY    38  31  76 W6        29.82R WCI  33
SHAWANO        CLOUDY    45  32  60 W3        29.82R
OCONTO         CLOUDY    41  31  65 W5        29.79R
STURGEON BAY   NOT AVBL
GREEN BAY      CLOUDY    43  33  68 W8        29.81R
MANITOWOC      NOT AVBL
APPLETON       PTCLDY    39  27  60 W10       29.80R WCI  32
CLINTONVILLE   MOCLDY    37  30  75 W3        29.82R
OSHKOSH        PTCLDY    43  30  60 W5        29.83R
$$

WIZ032>034-041-042-053>061-190600-
SOUTHWEST WISCONSIN

CITY           SKY/WX    TMP DP  RH WIND       PRES   REMARKS
LA CROSSE      CLOUDY    36  31  82 CALM      29.87S
SPARTA         CLOUDY    31  27  86 CALM      29.88S
VIROQUA        CLOUDY    42  31  63 CALM      29.86S
BOSCOBEL       CLEAR     32  30  92 CALM      29.89R
PRAIRIE DU CHI CLEAR     35  33  92 CALM      29.88R
PLATTEVILLE    CLEAR     45  42  91 CALM      29.87R
$$

WIZ056-057-062-063-064-067-068-190600-
SOUTH CENTRAL WISCONSIN

CITY           SKY/WX    TMP DP  RH WIND       PRES   REMARKS
REEDSBURG      CLEAR     34  31  90 CALM      29.87R
BARABOO/DELLS  CLEAR     35  29  79 CALM      29.86R
LONE ROCK      NOT AVBL
MINERAL POINT  CLEAR     43  39  87 CALM      29.86R
MADISON        PTCLDY    32  31  96 CALM      29.86R
MIDDLETON      CLEAR     34  32  93 CALM      29.86R
WATERTOWN      CLOUDY    32  32 100 CALM      29.84R
MONROE         CLEAR     48  39  71 NW9       29.85R
JANESVILLE     CLEAR     36  36 100 CALM      29.85R
$$

WIZ051-052-058>065-066-070>072-190600-
SOUTHEAST WISCONSIN

CITY           SKY/WX    TMP DP  RH WIND       PRES   REMARKS
MILWAUKEE      CLEAR     47  39  74 NW3       29.84R
WAUKESHA         N/A     37  34  87 W6        29.84R WCI  33
MILWAUKEE/TIMM CLEAR     37  32  81 W3        29.84R
RACINE         CLEAR     47  38  71 W7        29.85R
KENOSHA        CLEAR     38  33  82 SW6       29.84R WCI  33
FOND DU LAC    PTCLDY    44  29  55 W8        29.83R
SHEBOYGAN      CLOUDY    45  30  55 W6        29.83R
WEST BEND      PTCLDY    36  32  87 CALM      29.83R
JUNEAU         CLOUDY    45  30  56 W6        29.85R
$$

LSZ147-162-190600-
LAKE SUPERIOR

STATION/POSITION TIME  TEMP    WIND        PRES    WAVE
                       AIR SEA DIR/SP/G            HT/PER
                 (UTC) (F)     (DEG/KT/KT) (MB)    (FT/S)
DEVILS ISLAND    0400   40     240/ 20/ 23 1008.6R
PORT WING        0430   46     220/  5/  7 1009.5S
SAXON HARBOR     0440   47     210/  5/  8 1009.1R
$$

LMZ867-665-643>646-190600-
LAKE MICHIGAN

STATION/POSITION TIME  TEMP    WIND        PRES    WAVE
                       AIR SEA DIR/SP/G            HT/PER
                 (UTC) (F)     (DEG/KT/KT) (MB)    (FT/S)
CHAMBERS ISLAND  0440   42     200/  6/ 10 1008.1R
NORTHPORT PIER   0440   47     250/  3/  7 1007.8R
SISTER BAY       0335   44     250/ 12/ 12   N/A
KEWAUNEE LAKESHO 0430   48     290/  9/ 12 1007.9R
SHEBOYGAN LAKESH 0400   52     280/ 10/ 14 1008.8R
PORT WASHINGTON  0430   47     290/  5/  7 1010.5R
MILWAUKEE LAKESH 0430   52     300/  9/ 10   N/A
KENOSHA   LAKESH 0400   50      CALM  /  2 1009.8
$$

TC  - TEMPERATURE IN CELSIUS
VSB - VISIBILITY IN STATUTE MILES
WCI - WIND CHILL INDEX
HX  - HEAT INDEX





USA.gov is the U.S. government's official web portal to all federal, state and local government web resources and services.